Location: Champseau
(45.8333°N, 1.7667°E)
Time: 08:19:40
(UTC+00:00)

STRAND 1 - Pass Details

Date: 01 December 2021
Orbit: 768 x 780 km, 98.4° (Epoch: 22 January)

Event Time Altitude Azimuth Distance (km) Brightness Sun altitude
Rises 05:52:38 0° 159° (SSE) 3,247 ? -13.7°
Reaches altitude 10° 05:54:57 10° 157° (SSE) 2,322 ? -13.3°
Maximum altitude 06:00:03 74° 74° (ENE) 811 ? -12.5°
Drops below altitude 10° 06:05:11 10° 350° (N) 2,331 ? -11.6°
Sets 06:07:30 0° 348° (NNW) 3,261 ? -11.2°
